Weather in Uspeno-Raevka

Russia / Kursk Oblast     51°49′44″N   37°55′04″E
temp.,
°C
wind,
m/s
gust,
m/s
humid.,
%
clouds,
%
prec.,
mm/h
press.,
hPa
HPBL,
m
27 september, mon
mon2700:00+8nw71386100 0.0 1013738
03:00+8nw71388100 0.1 1014739
06:00+9nnw71390100 0.1 1015799
09:00+9n6108780 0.4 1016656
12:00+12n676987 0.4 10181062
15:00+13n686359 0.9 10181305
18:00+10nne59726 0.1 1019438
21:00+9n5981100 0.3 1020465
28 september, tue
tue2800:00+9n4886100 0.1 1020442
03:00+8n4892100 0.2 1021427
06:00+8nne4991100 0.3 1022513
09:00+8ne5884100 0.4 1023663
12:00+8ne5781100 0.2 1025757
15:00+7ne5680100 0.3 10261010
18:00+6ne5786100 0.1 1028931
21:00+6ne5880100 0.1 1030747
29 september, wed
wed2900:00+6ne4877100 0.0 1031546
03:00+4nne47825 0.0 1032266
06:00+2ne37865 0.0 1033149
09:00+6ne476733 0.0 1034410
12:00+9ne564934 0.0 10331090
15:00+11ne554439 0.0 10331271
18:00+8ne35575 0.0 1033108
21:00+6ne35655 0.0 103496
30 september, thu
thu3000:00+4ene33685 0.0 103548
03:00+4ne227160 0.0 103529
06:00+3ne227398 0.0 103626
09:00+7ne23615 0.0 1036267
12:00+10ene33485 0.0 10351026
15:00+11ene22445 0.0 10351305
18:00+9ene22555 0.0 103516
21:00+7ene22603 0.0 103510
1 october, fri
fri100:00+6ene11655 0.0 103610
03:00+5ene11686 0.0 103710
06:00+5ne117066 0.0 103710
09:00+8ene11595 0.0 1037191
12:00+12ene11481 0.0 1037941
15:00+13ne11455 0.0 10361203
18:00+10ene11563 0.0 103510
21:00+9e11625 0.0 103610